Weather History for KCDA - January, 2013

Change the Weather History Date:

Tuesday, January 1, 2013

  Actual Average (K1V4) Record (K1V4)
Temperature  
Mean Temperature 16 °F 18 °F  
Max Temperature 27 °F 28 °F 53 °F (1966)
Min Temperature 6 °F 9 °F -24 °F (1956)
Degree Days  
Heating Degree Days 48 47  
Month to date heating degree days 47  
Since 1 July heating degree days 3000  
Cooling Degree Days 0 0  
Month to date cooling degree days 0  
Year to date cooling degree days 0  
Moisture  
Dew Point 6 °F    
Average Humidity 67    
Maximum Humidity 90    
Minimum Humidity 53    
Precipitation  
Precipitation 0.00 in 0.08 in 1.14 in (1923)
Month to date precipitation 0.08  
Year to date precipitation 0.08  
Sea Level Pressure  
Sea Level Pressure 29.75 in    
Wind  
Wind Speed 7 mph (SW)    
Max Wind Speed 20 mph    
Max Gust Speed 28 mph    
Visibility 8 miles    
Events Snow    
T = Trace of Precipitation, MM = Missing Value Source: NWS Daily Summary

Daily Weather History Graph

Daily Weather History Graph

Search for Another Location

Airport or City:

Trip Planner

Search our weather history database for the weather conditions in past years. The results will help you decide how hot, cold, wet, or windy it might be!

Date:

Astronomy

Jan. 01, 2013 Rise Set
Actual Time 7:24 AM EST 4:18 PM EST
Civil Twilight 6:51 AM EST 4:52 PM EST
Nautical Twilight 6:14 AM EST 5:29 PM EST
Astronomical Twilight 5:39 AM EST 6:04 PM EST
Moon 8:58 PM EST (1/1) 9:25 AM EST (1/1)
Length of Visible Light 10h 00m
Length of Day
8h 54m
Waning Gibbous, 83% of the Moon is Illuminated
Jan 1
Waning Gibbous
Jan 4
Last Quarter
Jan 11
New
Jan 18
First Quarter
Jan 26
Full

Hourly Weather History & Observations

Time (EST) Temp. Windchill Dew Point Humidity Pressure Visibility Wind Dir Wind Speed Gust Speed Precip Events Conditions
12:15 AM 24.1 °F - 21.2 °F 89% 29.61 in 2.0 mi Calm Calm - N/A Snow Light Snow
12:35 AM 24.8 °F 20.5 °F 21.9 °F 89% 29.61 in 2.0 mi South 3.5 mph - N/A Snow Light Snow
12:55 AM 25.0 °F - 22.1 °F 89% 29.60 in 2.0 mi Calm Calm - N/A Snow Light Snow
1:15 AM 24.8 °F - 22.1 °F 89% 29.61 in 2.0 mi Calm Calm - N/A Snow Light Snow
1:35 AM 24.8 °F - 22.1 °F 89% 29.61 in 1.2 mi Calm Calm - N/A Snow Light Snow
1:55 AM 25.3 °F 19.7 °F 22.6 °F 89% 29.61 in 2.5 mi SSE 4.6 mph - N/A Snow Light Snow
2:15 AM 25.5 °F 17.8 °F 23.0 °F 90% 29.61 in 2.5 mi SSE 6.9 mph - N/A Snow Light Snow
2:35 AM 26.2 °F 19.6 °F 23.7 °F 90% 29.61 in 1.5 mi South 5.8 mph - N/A Snow Light Snow
2:55 AM 26.6 °F 21.2 °F 23.9 °F 90% 29.60 in 0.8 mi SSW 4.6 mph - N/A Snow Snow
3:15 AM 27.3 °F 17.1 °F 24.6 °F 90% 29.61 in 1.2 mi WNW 11.5 mph - N/A Snow Light Snow
3:35 AM 27.5 °F 21.1 °F 21.4 °F 78% 29.61 in 7.0 mi WNW 5.8 mph - N/A Snow Light Snow
3:55 AM 27.1 °F 18.9 °F 21.2 °F 78% 29.62 in 4.0 mi WNW 8.1 mph - N/A Snow Light Snow
4:15 AM 27.0 °F 21.6 °F 21.2 °F 79% 29.62 in 5.0 mi WNW 4.6 mph - N/A Snow Light Snow
4:35 AM 26.6 °F 14.7 °F 20.5 °F 78% 29.64 in 5.0 mi WNW 15.0 mph 23.0 mph N/A Snow Light Snow
4:55 AM 25.2 °F 12.9 °F 17.8 °F 74% 29.64 in 4.0 mi WNW 15.0 mph 25.3 mph N/A Snow Light Snow
5:15 AM 23.7 °F 9.3 °F 15.1 °F 70% 29.66 in 2.5 mi West 19.6 mph 27.6 mph N/A Snow Light Snow
5:35 AM 22.5 °F 14.1 °F 13.8 °F 69% 29.68 in 7.0 mi West 6.9 mph 23.0 mph N/A   Mostly Cloudy
5:55 AM 21.6 °F 9.3 °F 12.9 °F 69% 29.69 in 10.0 mi West 12.7 mph 24.2 mph N/A   Mostly Cloudy
6:15 AM 21.2 °F 7.8 °F 12.7 °F 70% 29.70 in 10.0 mi West 15.0 mph 20.7 mph N/A   Mostly Cloudy
6:35 AM 19.6 °F 5.7 °F 8.4 °F 62% 29.72 in 10.0 mi WSW 15.0 mph 21.9 mph N/A   Overcast
6:55 AM 18.9 °F 5.9 °F 6.6 °F 59% 29.74 in 10.0 mi SW 12.7 mph 17.3 mph N/A   Overcast
7:15 AM 18.1 °F 7.9 °F 6.1 °F 59% 29.75 in 10.0 mi SW 8.1 mph - N/A   Overcast
7:35 AM 17.8 °F 5.9 °F 6.6 °F 62% 29.75 in 10.0 mi SW 10.4 mph 16.1 mph N/A   Overcast
7:55 AM 16.5 °F 0.8 °F 5.4 °F 62% 29.76 in 7.0 mi SW 17.3 mph 27.6 mph N/A   Overcast
8:15 AM 15.6 °F 5.9 °F 5.0 °F 63% 29.77 in 10.0 mi SW 6.9 mph - N/A   Overcast
8:35 AM 15.8 °F 5.1 °F 4.6 °F 61% 29.78 in 10.0 mi SW 8.1 mph 18.4 mph N/A   Overcast
8:55 AM 15.1 °F -1.1 °F 2.7 °F 58% 29.78 in 10.0 mi SW 17.3 mph 23.0 mph N/A   Mostly Cloudy
9:15 AM 14.5 °F -0.7 °F 2.1 °F 58% 29.79 in 7.0 mi SW 15.0 mph 23.0 mph N/A   Clear
9:35 AM 14.0 °F -0.2 °F 2.1 °F 59% 29.79 in 10.0 mi SW 12.7 mph 17.3 mph N/A   Clear
9:55 AM 13.5 °F -1.5 °F 1.2 °F 58% 29.80 in 10.0 mi SW 13.8 mph 26.5 mph N/A   Clear
10:15 AM 13.8 °F 2.7 °F 1.2 °F 57% 29.80 in 10.0 mi SW 8.1 mph - N/A   Clear
10:35 AM 14.4 °F 0.2 °F 1.2 °F 56% 29.79 in 10.0 mi SW 12.7 mph - N/A   Clear
10:55 AM 14.5 °F 1.1 °F 0.9 °F 55% 29.78 in 10.0 mi SW 11.5 mph - N/A   Clear
11:15 AM 14.4 °F 0.9 °F -0.0 °F 53% 29.78 in 10.0 mi SW 11.5 mph 18.4 mph N/A   Clear
11:35 AM 14.4 °F 0.2 °F 0.1 °F 53% 29.78 in 10.0 mi SW 12.7 mph 17.3 mph N/A   Clear
11:55 AM 14.0 °F -0.8 °F -0.4 °F 53% 29.78 in 7.0 mi SW 13.8 mph 26.5 mph N/A   Clear
12:15 PM 14.4 °F -1.0 °F 0.3 °F 54% 29.78 in 10.0 mi SW 15.0 mph 23.0 mph N/A   Clear
12:35 PM 14.4 °F 2.4 °F 0.5 °F 54% 29.77 in 10.0 mi SW 9.2 mph 23.0 mph N/A   Scattered Clouds
1:15 PM 13.8 °F 0.2 °F 2.1 °F 60% 29.76 in 7.0 mi SW 11.5 mph 24.2 mph N/A   Overcast
1:35 PM 13.3 °F -2.4 °F 1.2 °F 59% 29.76 in 10.0 mi SW 15.0 mph 19.6 mph N/A   Overcast
1:55 PM 12.9 °F -1.6 °F 1.0 °F 59% 29.76 in 10.0 mi SW 12.7 mph 20.7 mph N/A   Overcast
2:15 PM 14.0 °F 1.2 °F 1.9 °F 59% 29.77 in 10.0 mi SW 10.4 mph - N/A   Overcast
2:35 PM 14.4 °F 4.3 °F 2.1 °F 58% 29.77 in 10.0 mi SW 6.9 mph 18.4 mph N/A   Overcast
2:55 PM 13.6 °F 1.6 °F 1.9 °F 60% 29.77 in 10.0 mi SW 9.2 mph 16.1 mph N/A   Overcast
3:15 PM 12.9 °F -0.9 °F 2.3 °F 63% 29.77 in 10.0 mi SW 11.5 mph - N/A   Overcast
3:35 PM 12.2 °F -1.0 °F 0.1 °F 59% 29.77 in 10.0 mi SW 10.4 mph 23.0 mph N/A   Scattered Clouds
3:55 PM 11.7 °F -4.4 °F -1.3 °F 56% 29.77 in 10.0 mi SW 15.0 mph 21.9 mph N/A   Clear
4:15 PM 10.8 °F -2.0 °F -1.1 °F 59% 29.77 in 10.0 mi SW 9.2 mph 17.3 mph N/A   Clear
4:35 PM 10.0 °F 0.4 °F -1.3 °F 60% 29.78 in 10.0 mi SW 5.8 mph - N/A   Scattered Clouds
4:55 PM 9.5 °F -1.5 °F -1.5 °F 61% 29.79 in 10.0 mi SW 6.9 mph - N/A   Scattered Clouds
5:15 PM 9.1 °F -3.0 °F -1.5 °F 62% 29.80 in 10.0 mi SW 8.1 mph - N/A   Scattered Clouds
5:35 PM 8.6 °F -4.7 °F -1.5 °F 64% 29.80 in 10.0 mi SW 9.2 mph - N/A   Scattered Clouds
6:15 PM 8.4 °F -1.6 °F -2.0 °F 63% 29.82 in 10.0 mi SW 5.8 mph - N/A   Clear
6:35 PM 8.1 °F -2.0 °F -2.2 °F 63% 29.83 in 10.0 mi SW 5.8 mph - N/A   Clear
6:55 PM 7.5 °F -3.9 °F -2.7 °F 63% 29.84 in 10.0 mi SW 6.9 mph - N/A   Clear
7:15 PM 7.7 °F -3.7 °F -2.2 °F 64% 29.84 in 10.0 mi SW 6.9 mph - N/A   Scattered Clouds
7:35 PM 7.3 °F -7.1 °F -2.2 °F 65% 29.84 in 10.0 mi SW 10.4 mph 17.3 mph N/A   Scattered Clouds
7:55 PM 7.3 °F -6.2 °F -2.6 °F 64% 29.85 in 10.0 mi SW 9.2 mph - N/A   Clear
8:15 PM 6.6 °F -6.1 °F -2.9 °F 65% 29.86 in 10.0 mi SW 8.1 mph - N/A   Clear
8:35 PM 6.3 °F -6.5 °F -2.9 °F 66% 29.86 in 10.0 mi SW 8.1 mph - N/A   Scattered Clouds
8:55 PM 6.4 °F -3.9 °F -2.6 °F 67% 29.86 in 10.0 mi SW 5.8 mph - N/A   Mostly Cloudy
9:15 PM 6.4 °F -2.4 °F -2.4 °F 67% 29.85 in 10.0 mi SW 4.6 mph - N/A   Overcast
9:35 PM 6.4 °F - -2.2 °F 68% 29.84 in 10.0 mi Calm Calm - N/A   Overcast
9:55 PM 6.6 °F - -2.2 °F 67% 29.84 in 10.0 mi Calm Calm - N/A   Overcast
10:15 PM 6.8 °F - -1.7 °F 68% 29.84 in 10.0 mi Calm Calm - N/A   Overcast
10:35 PM 6.8 °F -0.1 °F -1.5 °F 69% 29.84 in 7.0 mi SW 3.5 mph - N/A   Overcast
10:55 PM 7.0 °F - -1.3 °F 69% 29.84 in 7.0 mi Calm Calm - N/A   Overcast
11:15 PM 6.6 °F - -0.9 °F 71% 29.84 in 7.0 mi Calm Calm - N/A   Overcast
11:35 PM 6.6 °F - -0.8 °F 72% 29.84 in 5.0 mi Calm Calm - N/A   Haze
11:55 PM 6.1 °F - -0.4 °F 75% 29.84 in 5.0 mi Calm Calm - N/A   Haze